COSMOS 2456 (730)

Last updated on July 6, 2021, 3:39 p.m. UTC

1 36111U 09070A   21187.13840436 -.00000003  00000-0  00000+0 0  9999
2 36111  64.2804 132.9418 0005642 308.4779   9.4859  2.13099278 89958
UTC
Height (km)
Latitude
Longitude
Inclination
Orbital Period
UTC large
Height (km)
Speed (km/s)
/
Latitude / Longitude
Inclination (degrees)
Orbital Period (minutes)
Azimuth
Elevation
Range (km)
Doppler Factor
iOS Compass Heading
iOS Angle